FW5754 Weather Reports


Display with metric or nautical units.
time (UTC)temp
F
wind
direction
speed
MPH
gust
MPH
rain 1hr
in
rain 24hr
in
rain mn
in
humidity
%
barometer
mb
20260905194033 74 305 5.0 8.0 0.00 0.00 0.00 71 1009.9
20260905193531 74 305 5.0 8.0 0.00 0.00 0.00 72 1009.9
20260905193054 74 305 4.0 8.0 0.00 0.00 0.00 73 1010.0
20260905192533 75 305 4.0 9.0 0.00 0.00 0.00 70 1010.0
20260905192034 75 305 5.0 9.0 0.00 0.00 0.00 71 1010.0
20260905191556 76 305 7.0 10.0 0.00 0.00 0.00 69 1010.0
20260905191031 76 311 6.0 10.0 0.00 0.00 0.00 70 1009.9
20260905190534 76 315 6.0 9.0 0.00 0.00 0.00 69 1009.9
20260905190132 76 316 6.0 9.0 0.00 0.00 0.00 68 1010.0
20260905185535 76 324 6.0 9.0 0.00 0.00 0.00 70 1010.0
20260905185032 76 326 5.0 6.0 0.00 0.00 0.00 68 1009.8
20260905184620 76 326 4.0 6.0 0.00 0.00 0.00 67 1009.9
20260905184031 76 326 5.0 9.0 0.00 0.00 0.00 68 1009.9
20260905183532 75 326 7.0 9.0 0.00 0.00 0.00 67 1009.9
20260905183057 75 326 6.0 8.0 0.00 0.00 0.00 67 1009.9
20260905182531 75 326 5.0 8.0 0.00 0.00 0.00 67 1009.9
20260905182031 75 326 5.0 8.0 0.00 0.00 0.00 68 1010.0
20260905181552 75 326 4.0 6.0 0.00 0.00 0.00 68 1010.0
20260905181031 76 326 4.0 6.0 0.00 0.00 0.00 66 1010.0
20260905180531 76 326 4.0 6.0 0.00 0.00 0.00 67 1010.1
20260905180047 76 326 3.0 8.0 0.00 0.00 0.00 69 1010.2
20260905175533 76 326 4.0 8.0 0.00 0.00 0.00 69 1010.2
20260905175030 76 326 4.0 8.0 0.00 0.00 0.00 67 1010.3
20260905174554 76 326 4.0 6.0 0.00 0.00 0.00 68 1010.3
20260905174032 76 326 4.0 8.0 0.00 0.00 0.00 68 1010.2
20260905173532 76 326 4.0 8.0 0.00 0.00 0.00 69 1010.3
20260905173057 75 326 5.0 8.0 0.00 0.00 0.00 70 1010.3
20260905172531 75 326 4.0 8.0 0.00 0.00 0.00 68 1010.3
20260905172031 75 327 4.0 8.0 0.00 0.00 0.00 67 1010.3
20260905171551 75 327 5.0 8.0 0.00 0.00 0.00 67 1010.4
20260905171031 76 329 4.0 8.0 0.00 0.00 0.00 68 1010.2
20260905170531 75 329 4.0 8.0 0.00 0.00 0.00 67 1010.2
20260905170047 75 331 4.0 8.0 0.00 0.00 0.00 67 1010.1
20260905165530 75 333 5.0 8.0 0.00 0.00 0.00 67 1010.2
20260905165032 75 337 4.0 8.0 0.00 0.00 0.00 70 1010.2
20260905164550 75 338 4.0 9.0 0.00 0.00 0.00 70 1010.2
20260905164032 74 339 4.0 9.0 0.00 0.00 0.00 69 1010.2
20260905163530 74 339 5.0 8.0 0.00 0.00 0.00 70 1010.2
20260905163052 74 340 4.0 6.0 0.00 0.00 0.00 69 1010.2
20260905162532 74 340 3.0 6.0 0.00 0.00 0.00 69 1010.1
20260905162033 74 340 3.0 6.0 0.00 0.00 0.00 72 1010.1
20260905161553 74 340 3.0 6.0 0.00 0.00 0.00 72 1010.2
20260905161031 74 340 4.0 6.0 0.00 0.00 0.00 72 1010.1
20260905160531 74 342 4.0 6.0 0.00 0.00 0.00 72 1010.1
20260905160046 73 342 3.0 6.0 0.00 0.00 0.00 71 1010.2
20260905155532 73 342 5.0 6.0 0.00 0.00 0.00 71 1010.1
20260905155031 73 342 4.0 8.0 0.00 0.00 0.00 71 1010.2
20260905154547 73 343 5.0 8.0 0.00 0.00 0.00 70 1010.3
20260905154032 73 343 5.0 8.0 0.00 0.00 0.00 70 1010.2
20260905153532 73 343 5.0 8.0 0.00 0.00 0.00 71 1010.3
20260905153045 73 343 5.0 9.0 0.00 0.00 0.00 72 1010.3
20260905152532 73 343 5.0 9.0 0.00 0.00 0.00 72 1010.2
20260905152031 73 344 4.0 10.0 0.00 0.00 0.00 73 1010.2
20260905151549 73 344 6.0 10.0 0.00 0.00 0.00 71 1010.2
20260905151037 72 344 6.0 9.0 0.00 0.00 0.00 75 1010.3
20260905150532 73 344 7.0 10.0 0.00 0.00 0.00 71 1010.2
20260905150047 73 345 5.0 10.0 0.00 0.00 0.00 71 1010.3
20260905145532 73 345 4.0 10.0 0.00 0.00 0.00 74 1010.3
20260905145032 72 345 5.0 10.0 0.00 0.00 0.00 74 1010.1
20260905144546 72 344 7.0 10.0 0.00 0.00 0.00 73 1010.1
20260905144031 72 343 7.0 10.0 0.00 0.00 0.00 73 1010.0
20260905143531 71 344 6.0 10.0 0.00 0.00 0.00 75 1010.1
20260905143053 71 344 7.0 10.0 0.00 0.00 0.00 76 1010.1
20260905142529 71 344 5.0 10.0 0.00 0.00 0.00 75 1010.1
20260905142031 72 344 6.0 10.0 0.00 0.00 0.00 76 1010.0
20260905141601 72 350 6.0 9.0 0.00 0.00 0.00 74 1010.0
20260905141031 72 351 5.0 9.0 0.00 0.00 0.00 72 1010.0
20260905140532 72 351 6.0 9.0 0.00 0.00 0.00 74 1010.0
20260905140047 72 351 6.0 9.0 0.00 0.00 0.00 73 1010.1
20260905135531 71 350 5.0 8.0 0.00 0.00 0.00 72 1010.2
20260905135031 71 351 4.0 8.0 0.00 0.00 0.00 72 1010.2
20260905134546 71 351 3.0 8.0 0.00 0.00 0.00 75 1010.3
20260905134031 71 351 5.0 8.0 0.00 0.00 0.00 74 1010.3
20260905133532 71 350 4.0 8.0 0.00 0.00 0.00 74 1010.4
20260905133044 71 350 4.0 8.0 0.00 0.00 0.00 75 1010.4
20260905132531 70 350 4.0 8.0 0.00 0.00 0.00 74 1010.3
20260905132031 70 350 4.0 10.0 0.00 0.00 0.00 75 1010.4
20260905131601 70 351 5.0 10.0 0.00 0.00 0.00 76 1010.4
20260905131054 70 350 6.0 10.0 0.00 0.00 0.00 77 1010.5
20260905130530 70 350 7.0 10.0 0.00 0.00 0.00 77 1010.4
20260905130047 70 350 6.0 10.0 0.00 0.00 0.00 77 1010.4
20260905125530 70 350 6.0 11.0 0.00 0.00 0.00 76 1010.4
20260905125033 69 350 8.0 11.0 0.00 0.00 0.00 76 1010.4
20260905124550 69 350 5.0 9.0 0.00 0.00 0.00 78 1010.6
20260905124033 69 350 5.0 10.0 0.00 0.00 0.00 75 1010.6
20260905123531 69 350 3.0 10.0 0.00 0.00 0.00 79 1010.6
20260905123100 69 350 5.0 10.0 0.00 0.00 0.00 80 1010.6
20260905122531 68 350 4.0 8.0 0.00 0.00 0.00 80 1010.6
20260905122029 68 350 4.0 9.0 0.00 0.00 0.00 80 1010.6
20260905121551 68 350 4.0 9.0 0.00 0.00 0.00 79 1010.6
20260905121031 69 350 5.0 9.0 0.00 0.00 0.00 78 1010.6
20260905120533 69 350 6.0 10.0 0.00 0.00 0.00 79 1010.4
20260905120050 68 349 6.0 10.0 0.00 0.00 0.00 78 1010.4
20260905115533 68 348 6.0 9.0 0.00 0.00 0.00 79 1010.3
20260905115031 68 348 6.0 9.0 0.00 0.00 0.00 79 1010.3
20260905114555 68 348 5.0 9.0 0.00 0.00 0.00 80 1010.3
20260905114029 68 348 5.0 9.0 0.00 0.00 0.00 79 1010.3
20260905113532 68 348 4.0 8.0 0.00 0.00 0.00 79 1010.3
20260905113055 68 348 4.0 9.0 0.00 0.00 0.00 79 1010.2
20260905112530 68 348 5.0 10.0 0.00 0.00 0.00 79 1010.2
20260905112029 68 348 5.0 10.0 0.00 0.00 0.00 80 1010.1
20260905111556 68 348 5.0 10.0 0.00 0.00 0.00 79 1010.1
20260905111032 68 348 5.0 8.0 0.00 0.00 0.00 79 1010.1
20260905110532 68 348 4.0 6.0 0.00 0.00 0.00 78 1010.0
20260905110045 68 348 4.0 8.0 0.00 0.00 0.00 79 1010.0
20260905105530 68 348 5.0 9.0 0.00 0.00 0.00 78 1009.9
20260905105031 68 348 5.0 9.0 0.00 0.00 0.00 78 1009.9
20260905104545 68 348 6.0 9.0 0.00 0.00 0.00 79 1009.7
20260905104032 68 349 5.0 8.0 0.00 0.00 0.00 79 1009.7
20260905103531 68 349 4.0 6.0 0.00 0.00 0.00 79 1009.6
20260905103052 68 349 4.0 8.0 0.00 0.00 0.00 78 1009.7
20260905102529 68 349 4.0 8.0 0.00 0.00 0.00 77 1009.6
20260905102030 68 349 5.0 8.0 0.00 0.00 0.00 77 1009.7
20260905101559 68 349 4.0 9.0 0.00 0.00 0.00 76 1009.6
20260905101030 69 349 5.0 9.0 0.00 0.00 0.00 77 1009.5
20260905100534 69 349 5.0 9.0 0.00 0.00 0.00 78 1009.6
20260905100047 69 348 4.0 8.0 0.00 0.00 0.00 77 1009.5
20260905095531 69 348 5.0 9.0 0.00 0.03 0.00 77 1009.5
20260905095032 69 348 6.0 10.0 0.00 0.03 0.00 77 1009.4
20260905094547 69 348 6.0 10.0 0.00 0.03 0.00 78 1009.5
20260905094033 69 348 6.0 9.0 0.00 0.03 0.00 78 1009.4
20260905093534 69 349 5.0 9.0 0.00 0.03 0.00 79 1009.4
20260905093050 69 349 6.0 10.0 0.00 0.03 0.00 77 1009.5
20260905092533 69 348 7.0 12.0 0.00 0.03 0.00 76 1009.4
20260905092034 69 348 7.0 12.0 0.00 0.03 0.00 77 1009.3
20260905091548 69 347 7.0 11.0 0.00 0.03 0.00 76 1009.3
20260905091034 69 347 9.0 11.0 0.00 0.03 0.00 76 1009.3
20260905090534 69 344 9.0 11.0 0.00 0.03 0.00 77 1009.3
20260905090045 69 346 8.0 11.0 0.00 0.03 0.00 77 1009.3
20260905085534 69 344 8.0 11.0 0.00 0.05 0.00 77 1009.4
20260905085032 69 345 9.0 11.0 0.00 0.05 0.00 76 1009.4
20260905084601 69 342 8.0 11.0 0.00 0.05 0.00 77 1009.3
20260905084034 69 341 7.0 11.0 0.00 0.05 0.00 76 1009.3
20260905083535 69 340 7.0 10.0 0.00 0.05 0.00 76 1009.2
20260905083050 69 339 6.0 10.0 0.00 0.05 0.00 78 1009.3
20260905082534 69 338 6.0 9.0 0.00 0.05 0.00 78 1009.3
20260905082034 69 337 5.0 9.0 0.00 0.05 0.00 76 1009.2
20260905081545 69 336 4.0 6.0 0.00 0.05 0.00 77 1009.2
20260905081034 69 336 4.0 8.0 0.00 0.05 0.00 78 1009.3
20260905080534 69 336 5.0 8.0 0.00 0.05 0.00 77 1009.3
20260905080045 69 336 5.0 8.0 0.00 0.05 0.00 77 1009.3
20260905075534 69 336 4.0 8.0 0.00 0.10 0.00 77 1009.4
20260905075033 69 336 4.0 8.0 0.00 0.10 0.00 78 1009.4
20260905074555 69 336 5.0 8.0 0.00 0.10 0.00 77 1009.4
20260905074034 69 336 4.0 8.0 0.00 0.10 0.00 77 1009.3
20260905073535 69 336 4.0 8.0 0.00 0.10 0.00 77 1009.3
20260905073049 69 336 4.0 6.0 0.00 0.10 0.00 77 1009.3
20260905072534 69 336 4.0 9.0 0.00 0.10 0.00 77 1009.4
20260905072034 70 336 4.0 9.0 0.00 0.10 0.00 78 1009.4
20260905071547 70 336 5.0 9.0 0.00 0.10 0.00 77 1009.4
20260905071034 70 336 5.0 9.0 0.00 0.10 0.00 77 1009.4
20260905070532 70 336 5.0 9.0 0.00 0.10 0.00 76 1009.5
20260905070046 70 336 6.0 10.0 0.00 0.10 0.00 75 1009.6
20260905065533 70 335 7.0 10.0 0.00 0.10 0.00 76 1009.6
20260905065032 71 335 8.0 10.0 0.00 0.10 0.00 77 1009.8
20260905064550 71 334 8.0 12.0 0.00 0.10 0.00 77 1009.7
20260905064031 71 334 8.0 12.0 0.00 0.10 0.00 76 1009.7
20260905063535 71 334 11.0 12.0 0.00 0.10 0.00 74 1009.7
20260905063051 71 339 10.0 13.0 0.00 0.10 0.00 76 1009.8
20260905062531 71 330 10.0 13.0 0.00 0.10 0.00 77 1009.8
20260905062034 71 329 11.0 13.0 0.00 0.10 0.00 74 1009.9
20260905061607 71 331 10.0 14.0 0.00 0.10 0.00 77 1009.8
20260905061032 71 326 11.0 14.0 0.00 0.10 0.00 77 1009.9
20260905060534 71 326 11.0 14.0 0.00 0.10 0.00 73 1009.9
20260905060057 72 324 11.0 15.0 0.00 0.10 0.00 74 1009.9
20260905055536 72 323 11.0 15.0 0.00 0.10 0.00 74 1010.0
20260905055034 72 326 12.0 15.0 0.00 0.10 0.00 73 1010.1
20260905054555 72 323 11.0 15.0 0.00 0.10 0.00 73 1010.2
20260905054034 72 328 11.0 15.0 0.00 0.10 0.00 74 1010.2
20260905053537 72 331 12.0 15.0 0.00 0.10 0.00 74 1010.1
20260905053052 72 325 10.0 14.0 0.00 0.10 0.00 75 1010.1
20260905052534 72 327 11.0 14.0 0.00 0.10 0.00 73 1010.1
20260905052035 72 323 9.0 13.0 0.00 0.10 0.00 75 1010.0
20260905051547 72 324 11.0 13.0 0.00 0.10 0.00 75 1010.2
20260905051033 72 323 11.0 13.0 0.00 0.10 0.00 72 1010.2
20260905050538 72 324 10.0 13.0 0.00 0.10 0.00 75 1010.3
20260905050047 73 324 9.0 13.0 0.00 0.10 0.00 75 1010.4
20260905045535 73 322 10.0 13.0 0.00 0.10 0.00 74 1010.4
20260905045036 73 322 10.0 12.0 0.00 0.10 0.00 74 1010.4
20260905044555 73 318 9.0 13.0 0.00 0.10 0.00 75 1010.3
20260905044037 73 315 9.0 14.0 0.00 0.10 0.00 75 1010.4
20260905043533 73 320 11.0 14.0 0.00 0.10 0.00 75 1010.4
20260905043049 73 319 10.0 13.0 0.00 0.10 0.00 75 1010.4
20260905042533 73 315 10.0 13.0 0.00 0.10 0.00 74 1010.4
20260905042034 73 319 9.0 12.0 0.00 0.10 0.00 75 1010.5
20260905041547 73 317 9.0 12.0 0.00 0.10 0.00 76 1010.4
20260905041033 73 319 9.0 12.0 0.00 0.10 0.00 76 1010.4
20260905040534 73 318 10.0 12.0 0.00 0.10 0.00 75 1010.6
20260905040055 73 318 9.0 12.0 0.00 0.10 0.00 76 1010.4
20260905035534 73 316 9.0 12.0 0.00 0.10 0.10 76 1010.5
20260905035032 73 315 9.0 11.0 0.00 0.10 0.10 76 1010.5
20260905034550 73 316 8.0 11.0 0.00 0.10 0.10 78 1010.5
20260905034037 73 319 7.0 12.0 0.00 0.10 0.10 79 1010.5
20260905033533 73 319 9.0 12.0 0.00 0.10 0.10 78 1010.3
20260905033051 73 319 8.0 11.0 0.00 0.10 0.10 78 1010.4
20260905032537 73 315 8.0 10.0 0.00 0.10 0.10 79 1010.4
20260905032037 73 315 8.0 10.0 0.00 0.10 0.10 78 1010.3
20260905031600 73 313 6.0 9.0 0.00 0.10 0.10 78 1010.3
20260905031034 73 313 5.0 8.0 0.00 0.10 0.10 77 1010.3
20260905030534 74 313 5.0 8.0 0.00 0.10 0.10 76 1010.3
20260905030100 74 313 6.0 8.0 0.00 0.10 0.10 76 1010.3
20260905025533 74 313 6.0 9.0 0.00 0.10 0.10 76 1010.3
20260905025031 74 313 6.0 9.0 0.00 0.10 0.10 75 1010.3
20260905024626 74 313 5.0 8.0 0.00 0.10 0.10 76 1010.3
20260905024038 74 313 5.0 9.0 0.00 0.10 0.10 75 1010.3
20260905023539 74 313 5.0 9.0 0.00 0.10 0.10 74 1010.4
20260905023051 74 313 6.0 9.0 0.00 0.10 0.10 74 1010.4
20260905022531 74 312 5.0 9.0 0.00 0.10 0.10 75 1010.5
20260905022038 74 312 5.0 8.0 0.00 0.10 0.10 75 1010.6
20260905021547 74 312 5.0 8.0 0.00 0.10 0.10 77 1010.6
20260905021033 74 312 5.0 8.0 0.00 0.10 0.10 76 1010.6
20260905020534 74 312 4.0 6.0 0.00 0.10 0.10 76 1010.6
20260905020050 73 312 4.0 5.0 0.00 0.10 0.10 76 1010.6
20260905015534 74 312 4.0 4.0 0.00 0.10 0.10 76 1010.6
20260905015036 73 312 3.0 6.0 0.00 0.10 0.10 77 1010.5
20260905014556 73 312 4.0 6.0 0.00 0.10 0.10 77 1010.5
20260905014034 73 312 4.0 5.0 0.00 0.10 0.10 78 1010.4
20260905013533 73 312 3.0 4.0 0.00 0.10 0.10 79 1010.5
20260905013052 74 312 2.0 6.0 0.00 0.10 0.10 79 1010.5
20260905012533 74 312 3.0 6.0 0.00 0.10 0.10 79 1010.6
20260905012036 74 312 5.0 8.0 0.00 0.10 0.10 79 1010.6
20260905011601 74 312 5.0 8.0 0.00 0.10 0.10 79 1010.6
20260905011037 74 312 6.0 8.0 0.00 0.10 0.10 79 1010.7
20260905010534 74 311 6.0 8.0 0.00 0.10 0.10 80 1010.5
20260905010045 74 310 5.0 7.0 0.00 0.10 0.10 82 1010.5
20260905005534 74 310 5.0 7.0 0.00 0.10 0.10 84 1010.6
20260905005034 74 310 5.0 7.0 0.00 0.10 0.10 84 1010.8
20260905004601 74 310 4.0 5.0 0.00 0.10 0.10 84 1010.7
20260905004035 74 310 4.0 5.0 0.00 0.10 0.10 84 1010.7
20260905003536 74 310 4.0 5.0 0.00 0.10 0.10 84 1010.8
20260905003050 74 310 4.0 7.0 0.00 0.10 0.10 83 1010.6
20260905002534 74 310 4.0 8.0 0.00 0.10 0.10 83 1010.7
20260905002035 74 310 6.0 8.0 0.00 0.10 0.10 82 1010.7
20260905001600 75 310 6.0 9.0 0.00 0.10 0.10 82 1010.7
20260905001037 75 310 7.0 9.0 0.00 0.10 0.10 81 1010.7
20260905000533 75 310 8.0 9.0 0.00 0.10 0.10 79 1010.6
20260905000058 75 310 8.0 9.0 0.00 0.10 0.10 79 1010.6
20260904235532 75 311 7.0 9.0 0.00 0.10 0.10 80 1010.6
20260904235033 75 311 5.0 9.0 0.00 0.10 0.10 80 1010.6
20260904234556 75 311 5.0 8.0 0.00 0.10 0.10 80 1010.6
20260904234035 75 311 6.0 10.0 0.00 0.10 0.10 79 1010.4
20260904233534 75 311 7.0 10.0 0.00 0.10 0.10 78 1010.4
20260904233100 76 311 8.0 13.0 0.00 0.10 0.10 76 1010.3
20260904232534 76 311 9.0 13.0 0.00 0.10 0.10 76 1010.5
20260904232038 76 308 10.0 13.0 0.00 0.10 0.10 75 1010.4
20260904231551 75 308 10.0 12.0 0.00 0.10 0.10 77 1010.2
20260904231037 76 311 10.0 12.0 0.00 0.10 0.10 76 1010.2
20260904230531 76 313 9.0 11.0 0.00 0.10 0.10 76 1010.2
20260904230047 76 313 9.0 11.0 0.00 0.10 0.10 76 1010.2
20260904225535 76 313 9.0 11.0 0.00 0.10 0.10 76 1010.3
20260904225034 75 313 7.0 11.0 0.00 0.10 0.10 78 1010.3
20260904224558 75 313 8.0 11.0 0.00 0.10 0.10 77 1010.4
20260904224031 76 313 9.0 11.0 0.00 0.10 0.10 76 1010.4
20260904223534 76 314 9.0 12.0 0.00 0.10 0.10 75 1010.3
20260904223052 76 314 9.0 12.0 0.00 0.10 0.10 74 1010.3
20260904222534 76 314 9.0 11.0 0.00 0.10 0.10 73 1010.3
20260904222033 76 315 7.0 9.0 0.00 0.10 0.10 76 1010.3
20260904221548 76 315 5.0 8.0 0.00 0.10 0.10 77 1010.3
20260904221032 76 315 5.0 6.0 0.00 0.10 0.10 78 1010.2
20260904220531 76 315 4.0 6.0 0.00 0.10 0.10 78 1010.2
20260904220046 77 315 5.0 9.0 0.00 0.10 0.10 77 1010.4
20260904215533 77 315 6.0 9.0 0.00 0.10 0.10 76 1010.3
20260904215033 77 315 6.0 8.0 0.00 0.10 0.10 74 1010.3
20260904214552 77 315 6.0 9.0 0.00 0.10 0.10 75 1010.3
20260904214035 76 315 6.0 9.0 0.00 0.10 0.10 75 1010.3
20260904213531 76 315 6.0 9.0 0.00 0.10 0.10 77 1010.2
20260904213050 77 315 5.0 9.0 0.00 0.10 0.10 76 1010.1
20260904212534 77 315 7.0 9.0 0.00 0.10 0.10 75 1010.1
20260904212033 77 315 5.0 10.0 0.00 0.10 0.10 77 1010.2
20260904211548 77 315 6.0 10.0 0.00 0.10 0.10 79 1010.2
20260904211030 77 315 9.0 10.0 0.00 0.10 0.10 76 1010.2
20260904210532 77 315 7.0 10.0 0.00 0.10 0.10 76 1010.2
20260904210047 77 315 7.0 10.0 0.00 0.10 0.10 76 1010.2
20260904205534 76 315 6.0 9.0 0.00 0.10 0.10 78 1010.3
20260904205034 77 315 6.0 10.0 0.00 0.10 0.10 78 1010.3
20260904204558 77 315 6.0 11.0 0.00 0.10 0.10 75 1010.2
20260904204032 77 316 9.0 11.0 0.00 0.10 0.10 73 1010.3
20260904203534 77 315 8.0 11.0 0.00 0.10 0.10 72 1010.2
20260904203051 77 316 8.0 11.0 0.00 0.10 0.10 74 1010.1
20260904202534 77 317 7.0 10.0 0.00 0.10 0.10 74 1010.2
20260904202033 77 317 6.0 10.0 0.00 0.10 0.10 76 1010.2
20260904201548 77 317 7.0 11.0 0.00 0.10 0.10 74 1010.2
20260904201033 77 317 7.0 12.0 0.00 0.10 0.10 73 1010.1
20260904200533 78 317 9.0 13.0 0.00 0.10 0.10 72 1010.2
20260904200052 77 316 9.0 13.0 0.00 0.10 0.10 73 1010.2
20260904195532 77 317 9.0 13.0 0.00 0.10 0.10 74 1010.2
20260904195031 77 315 7.0 10.0 0.00 0.10 0.10 74 1010.2
20260904194559 77 316 7.0 10.0 0.00 0.10 0.10 74 1010.2